Regional Weather Roundup
Issued by NWS Newport/Morehead, NC

Current Version | Previous Version | Graphics & Text | Print | Product List | Glossary On
Versions: 1 2 3 4 5 6 7 8 9 10 11 12 13 14 15 16 17 18 19 20 21 22 23 24 25 26 27 28 29 30 31 32 33 34 35 36 37 38 39 40 41 42 43 44 45 46 47 48 49 50
020 ASUS42 KMHX 271313 RWRMHX WEATHER ROUNDUP FOR EASTERN NORTH CAROLINA NATIONAL WEATHER SERVICE NEWPORT/MOREHEAD CITY NC 900 AM EDT THU APR 27 2017 NOTE: "FAIR" INDICATES FEW OR NO CLOUDS BELOW 12,000 FEET WITH NO SIGNIFICANT WEATHER AND/OR OBSTRUCTIONS TO VISIBILITY NCZ015>017-031-032-045>047-102-103-271400- NORTH COAST CITY SKY/WX TMP DP RH WIND PRES REMARKS EDENTON SUNNY 73 64 74 SW7 29.93S ELIZABETH CITY SUNNY 72 64 76 SW12 29.93R KITTY HAWK SUNNY 72 62 70 W7 29.93S MANTEO SUNNY 71 63 75 W7 29.95R $$ NCZ045>047-081-094-103-104-271400- CENTRAL COAST CITY SKY/WX TMP DP RH WIND PRES REMARKS FRISCO PTSUNNY 73 66 78 SW5 29.96R HAZE $$ NCZ095-097-098-100-101-271400- SOUTHERN COAST CITY SKY/WX TMP DP RH WIND PRES REMARKS BEAUFORT MOSUNNY 73 69 87 SW7 29.95R CEDAR ISLAND NOT AVBL JACKSONVILLE SUNNY 74 66 76 S7 29.93R PINEY ISLAND MOSUNNY N/A N/A N/A SW8 29.95R WILMINGTON SUNNY 74 65 73 SW13 29.94R $$ NCZ011>013-027>030-043-044-078>080-089-090>093-098-271400- COASTAL PLAIN CITY SKY/WX TMP DP RH WIND PRES REMARKS AHOSKIE N/A 69 62 79 S6 29.91S CLINTON SUNNY 70 65 84 SW6 29.94R ELIZABETHTOWN SUNNY 71 64 80 SW8 29.94R GOLDSBORO SUNNY 70 68 93 SW10 29.91R GREENVILLE SUNNY 72 64 78 SW10 29.94S HAVELOCK MOSUNNY 74 66 76 SW9 29.95R KENANSVILLE SUNNY 70 64 83 SW3 29.93R KINSTON SUNNY 72 64 78 S10 29.94R NEW BERN SUNNY 73 66 78 S8 29.94S RICHLANDS SUNNY 73 65 75 S12 29.94R ROCKY MOUNT SUNNY 70 63 78 S10 29.92R WASHINGTON SUNNY 72 64 75 SW7 29.93S WHITEVILLE SUNNY 71 65 81 SW13 29.95R $$ AMZ130-135-150-152-154-156-158-170-250-252-270-ANZ085-086-088-633-658-670-271400- MARINE OBSERVATIONS STATION/POSITION TIME TEMP WIND PRES WAVE SWELL AIR SEA DIR/SP/G HT/PER HT/PER (UTC) (F) (DEG/KT/KT) (MB) (FT/S) (FT/S) CHESAPEAKE LIGHT NOT AVBL 64 E VA BEACH 1250 61 55 220/ 10/ 12 1014.2 5/10 5/10 DUCK 1248 69 59 240/ 10/ 14 1013.3 2 E DUCK 1230 61 N/A 3/13 2/13 OREGON INLET 1242 69 67 220/ 9/ 11 1013.8 13E OREGON INLT 1248 59 N/A 5/ 8 5/ 8 HATTERAS CG 1248 71 69 180/ 2/ 4 1014.1 DIAMOND BUOY 1250 76 77 220/ 14/ 16 1014.2 5/ 9 3/ 9 CAPE LOOKOUT 1200 70 180/ 3/ 3 1013.6 BEAUFORT LAB 1248 72 67 160/ 3/ 4 1013.2 30 SE NEW RVR IN 1208 71 280/ 4/ 6 1013.8 30 SE NEW RVR IN 1243 71 N/A 4/ 9 2/13 27 SE WRIGHTSVLE 1208 71 72 180/ 4/ 8 1013.1 5 SE WRIGHTSVLE 1208 71 70 200/ 6/ 8 1013.0 225 S CAPE HAT 1150 74 74 180/ 14/ 16 1016.3 5/ 9 3/ 9 41 SE CHARLESTON 1250 73 73 240/ 10/ 12 1014.3 4/ 8 3/ 8 $$

USA.gov is the U.S. government's official web portal to all federal, state and local government web resources and services.